• In Netherlands
  • List of Countries
  • For 7 days
  • Water Temperature
  • Satellite Maps
  • Weather Map
  • Weather Widgets
  • user-avatar
    Login

    Hourly Weather Córdoba

    Today, 24 February, Friday

    Time Temperature Precipitation Wind Pressure Humidity
    00:00 +27°C° 0 mm 2 mps 722 mmHg 55%
    01:00 +27°C° 0 mm 2 mps 722 mmHg 56%
    02:00 +26°C° 0 mm 2 mps 722 mmHg 58%
    03:00 +26°C° 0.1 mm 2 mps 722 mmHg 61%
    04:00 +25°C° 0.1 mm 2 mps 722 mmHg 64%
    05:00 +25°C° 0.1 mm 1 mps 722 mmHg 66%
    06:00 +27°C° 0 mm 2 mps 722 mmHg 60%
    07:00 +29°C° 0 mm 2 mps 723 mmHg 53%
    08:00 +31°C° 0 mm 2 mps 723 mmHg 47%
    09:00 +34°C° 0.1 mm 2 mps 723 mmHg 42%
    10:00 +36°C° 0.1 mm 3 mps 723 mmHg 37%
    11:00 +37°C° 0.1 mm 3 mps 723 mmHg 32%
    12:00 +38°C° 0 mm 3 mps 723 mmHg 30%
    13:00 +39°C° 0 mm 3 mps 722 mmHg 28%
    14:00 +41°C° 0 mm 4 mps 722 mmHg 26%
    15:00 +40°C° 0 mm 4 mps 721 mmHg 26%
    16:00 +40°C° 0 mm 4 mps 721 mmHg 26%
    17:00 +40°C° 0 mm 4 mps 720 mmHg 26%
    18:00 +36°C° 0 mm 4 mps 720 mmHg 30%
    19:00 +34°C° 0 mm 4 mps 720 mmHg 35%
    20:00 +31°C° 0 mm 3 mps 721 mmHg 40%
    21:00 +30°C° 0 mm 3 mps 721 mmHg 43%
    22:00 +29°C° 0 mm 3 mps 721 mmHg 46%
    23:00 +28°C° 0 mm 3 mps 722 mmHg 49%

    Tomorrow, 25 February, Saturday

    Time Temperature Precipitation Wind Pressure Humidity
    00:00 +27°C° 0 mm 2 mps 721 mmHg 52%
    01:00 +26°C° 0 mm 2 mps 721 mmHg 55%
    02:00 +26°C° 0 mm 1 mps 721 mmHg 58%
    03:00 +25°C° 0 mm 1 mps 721 mmHg 61%
    04:00 +25°C° 0 mm 1 mps 721 mmHg 64%
    05:00 +24°C° 0 mm 1 mps 721 mmHg 67%
    06:00 +26°C° 0 mm 1 mps 722 mmHg 60%
    07:00 +29°C° 0 mm 1 mps 722 mmHg 53%
    08:00 +31°C° 0 mm 1 mps 723 mmHg 45%
    09:00 +34°C° 0 mm 2 mps 723 mmHg 40%
    10:00 +35°C° 0 mm 2 mps 723 mmHg 35%
    11:00 +37°C° 0 mm 2 mps 723 mmHg 29%
    12:00 +38°C° 0 mm 2 mps 722 mmHg 28%
    13:00 +38°C° 0 mm 3 mps 722 mmHg 27%
    14:00 +38°C° 0 mm 3 mps 721 mmHg 25%
    15:00 +38°C° 0 mm 4 mps 721 mmHg 26%
    16:00 +38°C° 0 mm 4 mps 720 mmHg 26%
    17:00 +38°C° 0 mm 4 mps 720 mmHg 27%
    18:00 +35°C° 0 mm 4 mps 720 mmHg 32%
    19:00 +33°C° 0 mm 3 mps 720 mmHg 37%
    20:00 +30°C° 0 mm 3 mps 720 mmHg 42%
    21:00 +29°C° 0 mm 3 mps 720 mmHg 45%
    22:00 +28°C° 0 mm 3 mps 721 mmHg 47%
    23:00 +28°C° 0 mm 3 mps 721 mmHg 50%

    Day after tomorrow, 26 February, Sunday

    Time Temperature Precipitation Wind Pressure Humidity
    00:00 +27°C° 0 mm 2 mps 721 mmHg 54%
    01:00 +26°C° 0 mm 2 mps 721 mmHg 58%
    02:00 +25°C° 0 mm 1 mps 720 mmHg 62%
    03:00 +25°C° 0 mm 1 mps 720 mmHg 63%
    04:00 +24°C° 0 mm 1 mps 721 mmHg 63%
    05:00 +24°C° 0 mm 2 mps 721 mmHg 64%
    06:00 +26°C° 0 mm 2 mps 721 mmHg 58%
    07:00 +28°C° 0 mm 3 mps 722 mmHg 52%
    08:00 +31°C° 0 mm 3 mps 722 mmHg 46%
    09:00 +33°C° 0 mm 4 mps 722 mmHg 41%
    10:00 +35°C° 0 mm 5 mps 722 mmHg 36%
    11:00 +38°C° 0 mm 6 mps 722 mmHg 31%
    12:00 +38°C° 0 mm 6 mps 722 mmHg 30%
    13:00 +38°C° 0 mm 6 mps 721 mmHg 30%
    14:00 +38°C° 0 mm 6 mps 721 mmHg 29%
    15:00 +38°C° 0 mm 6 mps 721 mmHg 29%
    16:00 +37°C° 0 mm 5 mps 720 mmHg 30%
    17:00 +36°C° 0 mm 5 mps 720 mmHg 30%
    18:00 +34°C° 0 mm 4 mps 720 mmHg 34%
    19:00 +31°C° 0 mm 3 mps 720 mmHg 38%
    20:00 +29°C° 0 mm 2 mps 720 mmHg 43%
    21:00 +28°C° 0 mm 2 mps 720 mmHg 46%
    22:00 +28°C° 0 mm 2 mps 721 mmHg 49%
    23:00 +27°C° 0 mm 2 mps 721 mmHg 52%

    27 February, Monday

    Time Temperature Precipitation Wind Pressure Humidity
    00:00 +26°C° 0 mm 2 mps 721 mmHg 56%
    01:00 +26°C° 0 mm 2 mps 721 mmHg 59%
    02:00 +25°C° 0 mm 2 mps 720 mmHg 63%
    03:00 +25°C° 0 mm 2 mps 720 mmHg 66%
    04:00 +24°C° 0 mm 2 mps 720 mmHg 69%
    05:00 +24°C° 0 mm 1 mps 720 mmHg 72%
    06:00 +25°C° 0 mm 2 mps 721 mmHg 66%
    07:00 +27°C° 0 mm 2 mps 721 mmHg 59%
    08:00 +29°C° 0 mm 2 mps 722 mmHg 53%
    09:00 +31°C° 0 mm 3 mps 722 mmHg 47%
    10:00 +34°C° 0 mm 4 mps 722 mmHg 41%
    11:00 +36°C° 0 mm 4 mps 722 mmHg 36%
    12:00 +37°C° 0.1 mm 4 mps 721 mmHg 35%
    13:00 +37°C° 0.1 mm 4 mps 721 mmHg 33%
    14:00 +38°C° 0.1 mm 4 mps 720 mmHg 32%
    15:00 +37°C° 0.2 mm 4 mps 720 mmHg 33%
    16:00 +37°C° 0.2 mm 4 mps 719 mmHg 34%
    17:00 +36°C° 0.2 mm 4 mps 719 mmHg 35%
    18:00 +34°C° 0.5 mm 3 mps 719 mmHg 41%
    19:00 +31°C° 0.5 mm 3 mps 719 mmHg 46%
    20:00 +29°C° 0.5 mm 2 mps 720 mmHg 52%
    21:00 +28°C° 0.3 mm 2 mps 720 mmHg 55%
    22:00 +28°C° 0.3 mm 3 mps 720 mmHg 57%
    23:00 +27°C° 0.3 mm 3 mps 720 mmHg 59%

    28 February, Tuesday

    Time Temperature Precipitation Wind Pressure Humidity
    00:00 +27°C° 0.4 mm 3 mps 720 mmHg 62%
    01:00 +27°C° 0.4 mm 2 mps 720 mmHg 64%
    02:00 +26°C° 0.4 mm 2 mps 720 mmHg 66%
    03:00 +26°C° 0.7 mm 2 mps 720 mmHg 70%
    04:00 +26°C° 0.7 mm 2 mps 720 mmHg 74%
    05:00 +25°C° 0.7 mm 2 mps 720 mmHg 77%
    06:00 +26°C° 0.6 mm 2 mps 720 mmHg 76%
    07:00 +26°C° 0.6 mm 2 mps 721 mmHg 75%
    08:00 +27°C° 0.6 mm 1 mps 721 mmHg 74%
    09:00 +28°C° 0.3 mm 2 mps 721 mmHg 68%
    10:00 +29°C° 0.3 mm 3 mps 721 mmHg 61%
    11:00 +31°C° 0.3 mm 3 mps 721 mmHg 55%
    12:00 +33°C° 0.1 mm 4 mps 721 mmHg 48%
    13:00 +34°C° 0.1 mm 5 mps 720 mmHg 42%
    14:00 +35°C° 0.1 mm 6 mps 720 mmHg 36%
    15:00 +35°C° 0 mm 6 mps 720 mmHg 38%
    16:00 +34°C° 0 mm 5 mps 719 mmHg 40%
    17:00 +33°C° 0 mm 5 mps 719 mmHg 42%
    18:00 +29°C° 0 mm 4 mps 719 mmHg 52%
    19:00 +27°C° 0 mm 3 mps 719 mmHg 61%
    20:00 +25°C° 0 mm 2 mps 718 mmHg 70%
    21:00 +24°C° 0.7 mm 2 mps 718 mmHg 74%
    22:00 +24°C° 0.7 mm 3 mps 719 mmHg 78%
    23:00 +24°C° 0.7 mm 3 mps 719 mmHg 82%

    1 March, Wednesday

    Time Temperature Precipitation Wind Pressure Humidity
    00:00 +24°C° 0.3 mm 3 mps 718 mmHg 83%
    01:00 +23°C° 0.3 mm 2 mps 718 mmHg 85%
    02:00 +23°C° 0.3 mm 2 mps 718 mmHg 86%
    03:00 +23°C° 0.4 mm 2 mps 717 mmHg 87%
    04:00 +23°C° 0.4 mm 2 mps 717 mmHg 89%
    05:00 +21°C° 0.4 mm 2 mps 717 mmHg 91%
    06:00 +24°C° 0.2 mm 3 mps 717 mmHg 85%
    07:00 +25°C° 0.2 mm 3 mps 718 mmHg 80%
    08:00 +27°C° 0.2 mm 4 mps 718 mmHg 74%
    09:00 +29°C° 0 mm 4 mps 718 mmHg 65%
    10:00 +32°C° 0 mm 4 mps 718 mmHg 55%
    11:00 +35°C° 0 mm 4 mps 717 mmHg 46%
    12:00 +35°C° 0.3 mm 4 mps 717 mmHg 44%
    13:00 +36°C° 0.3 mm 5 mps 716 mmHg 42%
    14:00 +37°C° 0.3 mm 5 mps 716 mmHg 40%
    15:00 +37°C° 0 mm 5 mps 715 mmHg 40%
    16:00 +37°C° 0 mm 5 mps 715 mmHg 40%
    17:00 +37°C° 0 mm 5 mps 715 mmHg 40%
    18:00 +34°C° 0 mm 4 mps 715 mmHg 48%
    19:00 +32°C° 0 mm 4 mps 715 mmHg 56%
    20:00 +29°C° 0 mm 4 mps 716 mmHg 63%
    21:00 +29°C° 0 mm 3 mps 716 mmHg 65%
    22:00 +28°C° 0 mm 3 mps 716 mmHg 67%
    23:00 +27°C° 0 mm 3 mps 717 mmHg 69%
    Show more